Find Starlink 30911

NORAD ID: 58374 Int'l Des: 2023-178 Owner: SPXS Country: US Constellation: starlink operational
LEOCIRCULAR

Live Position

Loading 3D Globe...

About Starlink 30911

Description loading...

Upcoming Passes

Passes for default location (London). Set your location on the main map for personalized predictions.

Altitude History

Loading altitude history...

Two-Line Element Set

1 58374U 23178A 26132.52095993 .00001545 00000-0 56875-4 0 9994
2 58374 53.1620 63.9171 0001459 92.4296 267.6874 15.34383027139665
Epoch: May 12, 2026 • Age: 15 hours

Current Status

Altitude 480.6 km
Velocity 7.62 km/s
Sub-Earth Point -49.29°S, 15.1°E
Launch Date Nov 20, 2023
Age 2.4 years
Type internet

Technical Details

Classification Payload
Mass 730.00 kg
Dry Mass 700.00 kg
Total Mass 730.00 kg
Length 0.30 m
Diameter 4.10 m
Span 29.00 m
Shape Box + pan
Manufacturer SPXS
Bus Type Starlink V2M
Phase Status In Orbit
Owner/State SPXS/US

Most Searched